一网星座-0294星 (ONEWEB-0294 )

导读 | 星芒AI

ONEWEB-0294 是 OneWeb 卫星星座计划中的一颗低轨通信卫星,旨在为全球提供高速互联网服务。该卫星采用标准化设计,具备高容量通信能力,支持偏远和农村地区的网络接入。作为 OneWeb 扩展其全球覆盖计划的一部分,ONEWEB-0294 于近年发射入轨,与其他卫星协同工作,构建全球宽带通信网络。该卫星运行在约 1200 公里的近地轨道,采用先进通信技术,提升服务稳定性和数据传输效率。

基本信息
目录编号:
49083
目录名称:
ONEWEB-0294
国际标识:
2021-075J
轨道中心:
EARTH
卫星名称:
一网星座-0294星
卫星全名:
一网星座-0294星 (ONEWEB-0294 )
卫星状态:
在轨 (已飞行1577 天)
发射日期:
2021-08-21 UTC
国别 :
英国 (GB)
星等 :
--
轨道信息
数据来源 国际轨道数据
星历时间: 2025-12-14T22:34:11+0800
1天前
查看轨道信息
半长轴: 7592.372km
偏心率: 0.0001363
轨道倾角: 87.894°
近地点辐角 85.081°
升交点赤经 27.321°
平近点角 275.048°
近地点: 1213.202km
远地点: 1215.272km
周期: 109.730分钟
每日圈数: 13.123105
详细信息
平衡模式:
三轴稳定
覆盖范围:
全球
运营商:
一网卫星公司
运营商所在国:
英国
制造商(研发单位):
一网卫星公司
制造商所在国:
英国
使用方式:
暂无
卫星简介
OneWeb卫星网络由648颗重约125公斤的微型卫星组成,运行在1200公里的轨道上。 每颗卫星都能够提供至少每秒8千兆位的吞吐量,以使用其高吞吐量的Ku频段有效载荷为家庭和移动平台提供互联网接入。该卫星仍在工作。
2D轨道图
3D轨道图
轨道高度分析图
轨道倾角分析图
轨道综合分析图
查看轨道综合分析图